カタログに戻る

CZ-6A DEB

運用中PO
NORAD 61811·DEBRIS·🇨🇳 China

打ち上げ Aug 6, 2024 から Taiyuan Satellite Launch Center

Loading…

次のパス (今後24時間)

TLE

最新Source: Space-Track

元期: Sep 14, 2026, 00:07 UTC

1 61811U 24140ACB 26257.00529295  .00001469  00000-0  77898-3 0  9994
2 61811  89.0351 269.7421 0096431 300.3437  58.8238 14.10828317103776

AllMySatでCZ-6A DEBをリアルタイム追跡

Download on the App Store